Home   Weather   Tabriz   Past weeks

Flag for Iran Past Weather in Tabriz, Iran — Yesterday and Last 2 Weeks

Now
18 °F

Clear.


Feels Like: 11 °F
Forecast: 12 / 30 °F
Wind: 5 mph from Northwest

Location: Tabriz Airport

Current Time: Jan 23, 2017 at 12:23:49 am

Latest Report: Jan 22, 2017 at 11:30 pm


Visibility: 10 mi

Pressure: 30.30 "Hg (25.34 "Hg at 1388m altitude)

Humidity: 62%

Dew Point: 7 °F

Location of TabrizLocation

Past Weather in Tabriz — Graph

°F

Tabriz Temperature Yesterday

Maximum temperature yesterday: 30 °F (at 1:00 pm)
Minimum temperature yesterday: 21 °F (at 7:00 pm)
Average temperature yesterday: 25 °F

High & Low Weather Summary for the Past Weeks

 TemperatureHumidityPressure
High41 °F (Jan 9, 3:00 pm)93% (Jan 8, 7:30 pm)30.33 "Hg (Jan 8, 7:30 pm)
Low9 °F (Jan 7, 11:00 pm)47% (Jan 12, 12:00 pm)29.89 "Hg (Jan 13, 3:00 pm)
Average24 °F76%30.15 "Hg
* Reported Jan 7 10:30 pm — Jan 22 11:00 pm, Tabriz, Weather by CustomWeather, © 2017

Note: Actual official high and low records may vary slightly from our data, if they occured in-between our weather recording intervals... More about our weather records

Advertising

Tabriz Weather History for the Previous 24 Hours

Scroll right to see more
 ConditionsComfort  
Time TempWeatherWind HumidityBarometerVisibility
11:00 pm
Sun, Jan 22
21 °FClear.2 mph58%30.30 "Hg10 mi
10:30 pm21 °FClear.5 mph58%30.27 "Hg10 mi
10:00 pm23 °FClear.5 mph54%30.27 "Hg10 mi
9:30 pm23 °FClear.7 mph58%30.27 "Hg10 mi
9:00 pm21 °FClear.2 mph63%30.27 "Hg10 mi
8:30 pm21 °FClear.7 mph63%30.24 "Hg10 mi
8:00 pm21 °FClear.5 mph63%30.24 "Hg10 mi
7:30 pm21 °FPassing clouds.7 mph68%30.21 "HgN/A
7:00 pm21 °FClear.7 mph68%30.21 "Hg10 mi
6:30 pm23 °FPassing clouds.7 mph68%30.18 "HgN/A
6:00 pm23 °FScattered clouds.7 mph68%30.18 "HgN/A
5:30 pm25 °FScattered clouds.7 mph63%30.15 "HgN/A
5:00 pm27 °FSunny.7 mph59%30.15 "Hg10 mi
4:30 pm28 °FSunny.7 mph59%30.15 "Hg10 mi
4:00 pm28 °FSunny.12 mph59%30.15 "Hg10 mi
3:30 pm30 °FSunny.7 mph51%30.12 "Hg10 mi
3:00 pm30 °FSunny.7 mph59%30.12 "Hg10 mi
2:30 pm30 °FScattered clouds.9 mph51%30.12 "HgN/A
2:00 pm30 °FScattered clouds.9 mph55%30.12 "Hg5 mi
1:30 pm30 °FScattered clouds.No wind51%30.15 "Hg5 mi
1:00 pm30 °FScattered clouds.5 mph51%30.15 "Hg4 mi
12:30 pm28 °FBroken clouds.5 mph51%30.15 "Hg4 mi
12:00 pm27 °FBroken clouds.12 mph64%30.15 "Hg3 mi
11:30 am27 °FBroken clouds.5 mph64%30.15 "Hg3 mi
11:00 am27 °FBroken clouds.12 mph64%30.15 "Hg3 mi
10:30 am25 °FBroken clouds.9 mph69%30.15 "Hg3 mi
10:00 am25 °FBroken clouds.16 mph69%30.15 "Hg3 mi
9:30 am23 °FLight freezing rain. Broken clouds.7 mph74%30.15 "Hg3 mi
9:00 am25 °FBroken clouds.14 mph74%30.15 "Hg3 mi
8:30 am23 °FBroken clouds.9 mph74%30.12 "Hg2 mi
8:00 am25 °FPartly cloudy.9 mph74%30.12 "Hg2 mi
7:30 am25 °FMostly cloudy.5 mph74%30.12 "Hg4 mi
7:00 am25 °FMostly cloudy.7 mph74%30.12 "Hg4 mi
6:30 am23 °FLight snow. Mostly cloudy.7 mph74%30.12 "Hg4 mi
6:00 am25 °FMostly cloudy.5 mph69%30.12 "Hg4 mi
5:30 am25 °FMostly cloudy.7 mph74%30.12 "Hg4 mi
5:00 am25 °FMostly cloudy.9 mph74%30.12 "Hg4 mi
4:30 am23 °FMostly cloudy.14 mph80%30.12 "Hg4 mi
4:00 am23 °FMostly cloudy.12 mph74%30.12 "Hg4 mi
3:30 am25 °FMostly cloudy.7 mph74%30.12 "Hg4 mi
3:00 am25 °FLight freezing rain. Mostly cloudy.5 mph80%30.12 "Hg4 mi
2:30 am25 °FLight freezing rain. Mostly cloudy.7 mph80%30.12 "Hg4 mi
2:00 am27 °FLight freezing rain. Mostly cloudy.7 mph74%30.12 "Hg4 mi
1:30 am27 °FMostly cloudy.7 mph74%30.12 "Hg4 mi
1:00 am27 °FMostly cloudy.9 mph74%30.12 "Hg4 mi
12:30 am27 °FMostly cloudy.No wind74%30.12 "Hg4 mi
12:00 am27 °FMostly cloudy.No wind74%30.12 "Hg4 mi
Weather by CustomWeather, © 2017

See weather overviewHow to use our weather pages